FREGAT R/B, 44300

Orbit data source: Space-Track

FREGAT R/B, 44300 is space debris in MEO originally from a launch on Mon, 27 May 2019 UTC launched from the Plesetsk Missile And Space Complex (PKMTR). Debris objects in space refer to the collection of defunct objects orbiting the Earth. Examples of debris include non-operational satellites, rocket bodies, and fragments generated from explosions, collisions, or faulty payload assembly.

Loading next visibility...
Identifier
44300, 2019-030B
Orbit
MEO
Country
Flag of CISCIS
Related business
Manufacturer
Lavochkin
Mission
Spacecraft
Bus & Motor
FREGAT, Unknown motor
Mass
1,000 kg wet, 1,000 kg dry
Launch date (UTC)
2019-05-27 (7 years ago)
Launch vehicle
Unknown
Launch site
Plesetsk Missile And Space Complex (PKMTR)
Object type
Payload
Rocket body
Debris
Shape & HBR
Cyl, 1.7 m
Radar Cross Section
8.354 m², Large (>1 m²)

Expand to show TLE details & history
Last TLE update: 1 day ago

TLE from 1 day ago
0 FREGAT R/B
1 44300U 19030B   26252.64621959 -.00000018  00000-0  00000+0 0  9992
2 44300  64.3050 193.3695 0067976 135.4526 225.0744  2.09028542 55655
Epoch: 2026-09-09T15:30Z
TLE epoch observation values (Epoch: 2026-09-09T15:30:33.372Z)
Latitude
-0.00003°
Longitude
-27.96774°
Altitude
19,585.312 km
Speed
3.909 km/s
True Right ascension
12h 53m 27s
True Declination
0° 00' 00"
Sunlit
Object was in daylight at epoch
Visualization orbit readout
Latitude
Unknown
Longitude
Unknown
Altitude
Unknown
Speed
Unknown
Apparent Right ascension
Unknown
Apparent Declination
Unknown
Sunlit
N/A
Visualization observer readout
Local Sidereal Time
16:39:19
Azimuth
Unknown
Elevation
Unknown
Doppler factor
Unknown
Orbital elements
Apogee altitude
19,635.494 km
Perigee altitude
19,284.221 km
Semi-major axis
25,837.994 km
Eccentricity
0.0068
Inclination
64.305°
RAAN
193.3695°
Arg. of periapsis
135.4526°
True anomaly
224.52618°
Mean anomaly
225.0744°
Eccentric anomaly
224.79996°
Mean motion
0.52258 °/min
Orbital period
688.89 mins
BSTAR
0
Loading maneuver chart data...
Computing Atmospheric mass density...
Loading historical data...
Loading historical data...
Loading historical data...
Loading historical data...
Loading historical data...
Loading historical data...
Loading historical data...
Other satellites on launch #30 in the year 2019 (2019-05-27 UTC)

Documentation

Showing up to 5 results
|